User: anonymous   Login
Location: Oberwangen
(47.4286°N, 8.9679°E)
Time: 00:22:37
(UTC+00:00)
Language:

NOAA 16 DEB - Orbit

View from above orbital plane
View from above orbital plane
View from above satellite
View from above satellite

Ground track
Ground track

The orbit data is extracted from the following two-line orbital elements,

1 41045U 00055C   22222.38857154  .00000031  00000-0  38071-4 0  9992
2 41045  98.5935 274.4349 0013558   5.7399 354.3928 14.14212895346276
Epoch (UTC): 10 August 2022 09:19:32
Eccentricity: 0.0013558
inclination: 98.5935°
perigee height: 835 km
apogee height: 855 km
right ascension of ascending node: 274.4349°
argument of perigee: 5.7399°
revolutions per day: 14.14212895
mean anomaly at epoch: 354.3928°
orbit number at epoch: 34627

The dashed part of the orbit path shows where the satellite is in the earth's shadow,  

DLR